Hourly Data Report for December 11, 2019

All times are specified in Local Standard Time (LST). Add 1 hour to adjust for Daylight Saving Time where and when it is observed.

SATURNA ISLAND CS
BRITISH COLUMBIA
Current Station Operator: ECCC - MSC

48°47'02.067" N
123°02'41.082" W
24.40 m
1017101
71473
WEZ

Download Data

Hourly Data (December 2019)
Hourly Data Report for December 11, 2019
TIME Temp Definition
°C
Dew Point Definition
°C
Rel Hum Definition
%
Wind Dir Definition
10's deg

Wind Spd Definition
km/h
Visibility Definition
km
Stn Press Definition
kPa
Hmdx Definition


Wind Chill Definition


Weather Definition


00:00 6.2 5.7 97 10 9   101.54     LegendNANA
01:00 6.4 6.1 97 9 12   101.48     LegendNANA
02:00 6.6 6.3 98 9 13   101.43     LegendNANA
03:00 6.7 6.3 97 10 12   101.42     LegendNANA
04:00 6.8 6.3 97 10 12   101.42     LegendNANA
05:00 6.8 6.3 97 10 9   101.42     LegendNANA
06:00 7.0 6.4 96 10 14   101.39     LegendNANA
07:00 6.9 6.3 96 10 13   101.41     LegendNANA
08:00 6.9 6.4 97 10 16   101.38     LegendNANA
09:00 7.1 6.6 97 9 18   101.29     LegendNANA
10:00 7.5 6.7 94 10 17   101.24     LegendNANA
11:00 7.3 6.1 92 7 20   101.15     LegendNANA
12:00 7.5 6.3 92 6 24   101.06     LegendNANA
13:00 7.4 5.9 90 9 30   100.94     LegendNANA
14:00 7.4 5.8 90 10 27   100.84     LegendNANA
15:00 8.1 6.2 88 11 21   100.77     LegendNANA
16:00 8.9 7.3 90 16 16   100.69     LegendNANA
17:00 8.9 7.5 91 17 26   100.64     LegendNANA
18:00 8.9 7.6 92 17 39   100.51     LegendNANA
19:00 8.8 7.1 89 16 36   100.39     LegendNANA
20:00 9.0 7.1 88 16 41   100.30     LegendNANA
21:00 8.9 6.8 87 16 46   100.20     LegendNANA
22:00 8.8 6.6 86 17 40   100.18     LegendNANA
23:00 8.7 7.5 92 18 50   100.17     LegendNANA

Notes on Data Quality.

Legend

  • E = Estimated
  • M = Missing
  • NA = Not Available
Date modified: